Wind_Speed
127 129 132 132 130 129 131 129 128 129 127 127 122 124 123 124 124 128 128 125 123 124 124 120 119 118 117 117 115 110 108 105 104 101 100 101 100 100 98 95 94 92 91
131 134 137 136 139 136 137 140 139 141 139 138 138 134 131 135 134 132 131 131 131 134 134 133 131 129 124 122 123 123 122 116 112 109 109 108 107 109 110 107 104 96 97
125 127 130 133 135 140 141 143 144 146 147 146 144 146 142 141 144 142 141 141 140 141 139 140 137 138 136 135 133 128 127 130 124 118 117 117 116 115 115 116 113 108 107
118 119 121 122 123 128 129 133 137 138 141 144 148 143 148 150 153 151 151 149 147 148 148 147 146 145 144 143 142 138 138 135 136 127 120 122 123 123 121 121 121 117 119
115 117 118 119 120 122 125 125 125 126 127 132 137 142 144 145 143 149 151 154 152 151 152 152 152 152 147 149 146 145 146 146 145 144 137 131 126 131 131 130 128 126 123
111 113 115 116 118 121 123 123 123 123 123 124 128 128 128 129 131 136 141 142 137 135 141 143 141 142 143 150 148 148 155 153 150 155 153 150 144 131 137 140 139 138 133
100 103 106 107 107 109 111 113 115 117 118 119 122 127 128 128 128 128 131 131 130 129 130 131 130 128 126 130 133 137 136 134 137 137 139 137 135 130 132 138 141 140 136
97 98 98 99 101 102 104 106 108 109 112 113 114 116 119 120 123 124 124 126 125 122 123 126 126 124 124 125 126 123 120 120 119 120 118 125 128 125 125 130 134 136 137
89 90 91 91 91 92 93 95 98 98 100 102 103 106 110 110 118 121 123 121 118 117 117 116 117 118 120 121 119 118 118 113 114 115 112 111 113 119 120 125 124 123 120
89 90 90 90 90 92 93 92 92 92 92 95 97 100 101 101 107 111 114 113 110 112 112 111 113 113 114 115 116 114 110 107 113 113 112 112 110 111 111 109 111 110 111
88 89 89 90 91 91 92 92 92 93 94 95 95 98 99 100 100 103 107 108 107 104 102 106 108 109 108 113 114 111 102 106 108 109 106 104 105 106 105 102 102 102 107
82 82 83 84 85 86 87 89 90 92 93 94 94 95 97 98 100 102 103 103 102 99 96 95 101 107 107 106 109 106 101 102 103 101 100 100 102 103 103 102 105 104 106
81 82 82 80 81 81 80 81 83 86 86 88 89 90 94 96 97 99 99 99 98 97 97 95 93 97 102 102 100 101 103 104 102 98 98 96 100 105 105 103 102 105 102
83 84 82 81 80 79 79 79 79 81 83 84 84 86 88 92 94 95 94 95 94 95 96 95 93 92 95 99 99 95 95 99 102 100 98 100 102 102 98 101 104 106 107
80 80 79 79 78 78 78 77 76 76 77 77 77 79 81 84 84 84 85 87 88 89 90 93 94 92 92 95 97 97 93 91 94 98 97 100 102 102 100 100 102 105 106
77 76 76 75 76 75 75 76 76 72 75 73 73 74 76 76 77 77 77 77 78 79 81 85 86 87 87 91 94 95 95 92 88 91 94 97 97 100 102 99 100 98 103
74 74 74 72 72 72 71 70 72 74 68 67 67 67 69 70 72 71 70 70 68 68 73 78 79 79 81 85 87 87 88 88 88 87 89 90 91 95 99 99 99 98 97
69 68 68 67 68 67 66 65 65 65 67 67 61 62 62 60 62 64 63 63 62 63 65 68 71 74 76 79 82 83 83 82 80 82 87 88 88 89 92 95 98 100 100
67 66 65 63 62 61 61 60 60 61 60 60 62 61 60 53 55 58 57 56 56 56 59 62 64 67 69 72 76 78 80 82 82 78 80 83 87 89 89 90 91 97 99
65 64 62 61 60 59 59 57 56 57 56 57 57 59 61 59 53 54 56 56 54 53 54 55 58 61 64 66 69 71 72 76 78 78 76 76 80 85 90 89 89 90 93
63 61 61 59 58 58 57 55 54 54 53 54 54 55 56 59 56 51 52 53 52 51 51 51 53 55 58 59 60 62 65 68 71 72 73 75 76 81 85 88 90 89 89
60 59 57 56 55 54 54 52 51 49 50 51 50 50 51 53 54 52 50 50 50 48 48 48 48 50 53 55 56 57 59 63 64 65 68 71 73 76 80 84 87 89 89
57 56 54 54 53 52 51 51 50 48 46 46 46 46 47 49 52 50 49 46 48 46 45 46 46 46 47 50 51 52 54 57 59 61 62 65 69 72 76 80 83 86 88
54 52 51 52 51 50 49 48 46 45 45 45 44 42 42 44 49 49 46 45 42 44 44 44 44 44 44 45 46 48 50 52 55 57 58 61 64 68 71 74 77 81 84
50 49 48 48 47 47 46 46 45 44 44 44 43 42 40 40 42 46 43 43 41 39 41 41 41 41 42 43 44 45 46 49 51 54 56 58 60 62 65 69 72 75 79
47 46 46 44 43 44 44 43 43 43 42 41 40 39 39 38 38 40 41 38 39 37 36 38 38 38 39 41 42 43 44 46 48 51 54 56 57 59 62 64 66 69 72
Wind_Direction
258 257 257 258 259 259 260 261 260 260 262 261 259 257 255 255 257 256 257 258 259 261 262 262 261 261 262 263 264 264 264 264 264 262 264 264 265 265 262 260 260 260 261
262 261 258 258 259 258 259 260 260 261 262 261 262 262 259 254 256 258 256 255 257 257 257 257 259 260 260 260 261 262 261 262 262 261 260 261 262 264 265 264 262 261 263
267 265 265 263 262 262 261 261 259 260 261 262 262 260 259 260 259 259 257 257 256 256 257 258 257 257 258 258 259 258 260 261 261 261 261 261 261 261 262 263 263 263 264
269 269 267 266 264 264 264 261 262 261 261 261 261 260 259 258 259 259 258 257 256 256 257 256 257 256 256 257 257 259 259 259 259 259 260 261 261 262 262 264 265 266 265
270 269 269 268 267 266 265 264 264 262 262 261 260 261 260 260 259 260 259 258 259 259 258 256 256 256 256 256 256 257 256 257 257 255 256 261 261 261 262 262 262 264 266
271 269 268 268 268 268 268 267 267 267 265 264 265 264 263 262 261 259 258 260 261 260 261 259 259 259 260 257 257 257 255 256 258 259 258 260 261 259 258 259 260 263 263
272 271 270 270 269 268 268 267 267 267 267 266 264 263 264 265 264 263 263 261 261 261 260 261 262 262 261 260 259 258 258 259 259 259 261 259 259 255 256 257 258 259 260
275 274 273 272 271 270 269 269 268 267 266 266 265 265 264 264 264 263 262 262 262 262 262 261 261 261 262 261 260 260 260 260 259 259 257 257 257 256 256 256 257 258 258
276 276 275 273 272 271 269 268 267 267 267 266 266 265 264 263 263 263 263 263 263 262 262 262 262 261 261 260 260 260 261 261 260 259 258 255 255 255 255 256 256 256 256
279 278 276 275 274 272 271 270 269 268 267 266 266 265 265 264 263 264 265 264 263 261 261 261 259 258 258 259 259 258 258 259 258 257 256 255 254 254 253 252 252 254 255
277 277 276 275 273 272 271 271 270 270 268 267 266 266 266 265 264 264 264 264 264 263 261 261 261 260 256 256 258 257 256 255 255 254 254 254 254 254 254 253 252 251 252
279 279 277 275 274 272 272 272 271 270 271 271 270 269 268 267 266 265 265 266 266 266 264 259 259 259 258 256 255 258 257 254 254 253 253 253 253 253 252 251 250 250 251
280 280 279 279 277 276 275 273 272 272 271 271 270 270 269 269 268 267 266 266 266 266 265 263 259 258 259 259 257 254 253 254 253 252 252 250 250 249 248 248 248 249 250
282 281 281 280 280 279 278 276 275 274 274 273 272 270 269 269 268 268 268 266 265 265 264 263 261 258 258 259 259 256 252 251 252 251 248 248 247 248 248 247 246 246 248
282 282 282 281 281 281 280 279 278 277 275 275 274 272 271 270 269 268 267 266 265 264 263 263 262 259 256 256 257 258 255 250 249 250 248 245 245 246 246 245 245 244 245
282 283 282 282 282 281 281 281 280 278 278 278 276 275 275 273 272 271 269 266 265 264 263 261 260 260 258 256 255 255 255 254 250 248 248 247 245 245 245 245 245 244 244
282 282 282 282 282 282 282 281 281 282 278 277 276 275 274 275 275 274 273 271 267 263 261 261 260 258 256 255 255 255 255 254 250 249 248 248 247 244 245 246 246 245 244
283 283 283 282 282 282 282 281 281 281 283 283 276 274 274 275 275 274 274 272 269 266 263 260 259 257 255 255 255 254 254 254 252 248 247 247 246 245 244 243 244 245 244
285 285 285 285 285 284 284 283 283 283 283 282 283 281 279 278 277 278 275 273 270 266 263 261 259 258 256 254 253 252 251 251 250 247 245 245 244 244 243 243 242 244 246
287 287 287 287 287 285 284 284 284 283 282 283 283 283 284 284 280 278 278 277 273 269 266 263 260 258 257 255 254 253 252 252 252 250 246 244 244 243 244 243 242 242 243
287 287 286 286 286 285 285 285 284 283 283 283 283 283 283 284 284 280 278 277 275 272 268 265 263 260 258 256 254 253 253 252 251 250 248 245 242 241 242 242 242 242 242
287 286 285 284 283 283 284 284 284 284 283 283 282 282 284 284 283 283 280 278 276 273 270 266 264 261 259 257 254 251 249 249 249 248 247 245 243 242 241 241 241 242 241
285 285 285 285 285 285 286 287 288 287 287 286 286 286 285 284 283 282 281 279 277 274 271 267 264 262 259 258 256 252 250 248 248 247 245 244 242 241 242 242 241 241 241
284 284 284 284 286 287 288 288 288 290 290 290 289 287 285 283 283 283 282 281 277 275 271 268 265 263 261 259 256 253 249 247 246 245 245 244 242 241 242 242 242 243 243
284 283 282 283 284 285 287 289 291 292 291 291 290 289 285 283 282 282 281 281 279 275 272 268 264 261 258 257 257 255 251 247 245 244 243 242 242 242 242 243 243 244 245
282 281 282 284 285 286 287 290 291 290 291 291 291 290 288 285 283 282 282 279 279 277 273 270 265 260 256 254 253 252 252 249 246 244 242 242 242 242 242 243 244 245 246
Height
10432 10430 10431 10433 10434 10435 10435 10436 10437 10441 10442 10445 10448 10452 10454 10456 10458 10459 10462 10464 10468 10469 10471 10477 10483 10486 10489 10491 10493 10500 10508 10511 10522 10527 10526 10524 10529 10533 10535 10540 10546 10553 10553
10389 10390 10390 10392 10392 10393 10393 10394 10394 10396 10397 10400 10402 10406 10411 10414 10415 10420 10423 10426 10428 10433 10437 10443 10447 10446 10453 10456 10459 10465 10471 10478 10484 10497 10499 10501 10504 10504 10504 10511 10518 10526 10528
10348 10349 10349 10350 10351 10349 10352 10350 10349 10349 10351 10352 10358 10360 10364 10368 10370 10372 10377 10380 10385 10390 10395 10399 10403 10409 10416 10421 10426 10429 10433 10438 10447 10460 10468 10473 10476 10476 10478 10478 10488 10499 10500
10307 10307 10305 10304 10305 10304 10302 10302 10302 10304 10305 10306 10307 10313 10318 10321 10322 10323 10327 10331 10337 10344 10350 10357 10362 10367 10374 10376 10384 10391 10394 10402 10408 10418 10428 10438 10445 10446 10446 10451 10458 10465 10464
10270 10266 10262 10261 10260 10259 10258 10258 10258 10259 10261 10262 10265 10266 10270 10273 10276 10274 10276 10281 10287 10294 10300 10309 10317 10322 10329 10333 10339 10347 10350 10357 10367 10376 10388 10399 10412 10417 10418 10418 10417 10422 10430
10230 10225 10223 10222 10221 10217 10216 10216 10217 10217 10219 10221 10221 10221 10224 10227 10228 10229 10230 10231 10235 10243 10251 10258 10267 10274 10281 10287 10294 10302 10308 10313 10324 10331 10342 10358 10376 10381 10382 10383 10382 10388 10401
10193 10188 10184 10184 10183 10180 10179 10178 10176 10176 10177 10179 10181 10178 10181 10184 10182 10181 10179 10183 10193 10203 10212 10217 10221 10228 10233 10242 10248 10254 10263 10272 10279 10285 10295 10313 10320 10337 10343 10345 10348 10354 10364
10156 10154 10152 10152 10149 10147 10145 10142 10140 10139 10140 10141 10143 10140 10142 10147 10139 10136 10135 10138 10149 10162 10170 10176 10181 10188 10193 10198 10202 10210 10222 10231 10244 10245 10258 10269 10275 10288 10302 10308 10309 10313 10320
10126 10122 10118 10117 10116 10114 10112 10109 10105 10107 10107 10106 10105 10103 10101 10110 10098 10096 10094 10102 10114 10125 10129 10135 10142 10150 10156 10152 10155 10168 10179 10194 10200 10207 10218 10230 10236 10244 10261 10266 10276 10280 10290
10094 10089 10087 10085 10085 10079 10075 10074 10075 10076 10078 10072 10070 10066 10067 10071 10062 10059 10057 10064 10076 10081 10089 10097 10101 10109 10112 10110 10111 10127 10140 10165 10156 10163 10178 10190 10200 10209 10218 10234 10239 10251 10258
10063 10060 10056 10052 10049 10048 10046 10044 10044 10041 10039 10038 10040 10036 10034 10034 10032 10028 10023 10025 10033 10045 10058 10059 10061 10064 10072 10075 10073 10085 10114 10118 10118 10123 10139 10155 10166 10175 10186 10200 10206 10215 10221
10033 10029 10025 10022 10020 10019 10019 10015 10012 10009 10008 10006 10007 10004 10001 10000 9997 9994 9994 9997 10002 10011 10020 10029 10029 10025 10029 10039 10043 10057 10071 10077 10081 10093 10104 10121 10131 10141 10150 10159 10166 10176 10184
10004 9999 9996 9994 9990 9990 9991 9988 9984 9982 9981 9978 9977 9976 9968 9964 9962 9961 9966 9969 9974 9979 9983 9989 9998 9998 9994 10000 10013 10025 10032 10036 10048 10062 10074 10088 10092 10096 10104 10121 10133 10140 10152
9976 9970 9969 9966 9964 9963 9960 9959 9957 9954 9950 9949 9948 9945 9939 9933 9930 9933 9935 9938 9941 9945 9947 9952 9961 9966 9967 9968 9973 9986 9998 10006 10013 10025 10043 10048 10050 10057 10076 10085 10094 10106 10115
9947 9944 9940 9938 9937 9933 9930 9928 9928 9924 9922 9920 9917 9913 9909 9904 9904 9905 9905 9905 9909 9913 9917 9918 9920 9930 9938 9940 9942 9948 9959 9972 9982 9991 10003 10012 10018 10026 10038 10047 10055 10067 10078
9924 9921 9917 9915 9912 9910 9907 9901 9896 9901 9894 9894 9892 9887 9881 9880 9877 9876 9877 9880 9883 9886 9887 9887 9890 9897 9905 9907 9912 9917 9923 9935 9951 9958 9967 9975 9989 9997 10001 10012 10020 10035 10044
9904 9900 9895 9892 9888 9886 9883 9880 9873 9865 9872 9871 9868 9864 9860 9856 9852 9852 9852 9853 9857 9860 9860 9859 9864 9869 9873 9875 9879 9886 9893 9902 9915 9929 9937 9946 9957 9965 9972 9984 9993 10004 10013
9882 9878 9873 9870 9866 9863 9860 9857 9852 9849 9842 9838 9843 9840 9837 9837 9833 9830 9829 9829 9831 9834 9834 9835 9838 9840 9845 9850 9854 9860 9867 9874 9885 9895 9905 9917 9926 9935 9945 9954 9962 9970 9978
9857 9855 9851 9848 9845 9842 9838 9835 9832 9827 9825 9822 9815 9813 9812 9817 9813 9809 9808 9809 9809 9810 9810 9812 9814 9817 9820 9825 9827 9833 9839 9844 9852 9864 9875 9886 9897 9905 9914 9924 9934 9940 9948
9836 9832 9829 9827 9824 9822 9819 9816 9813 9809 9807 9804 9801 9797 9790 9790 9795 9793 9789 9787 9788 9789 9789 9790 9792 9795 9797 9801 9805 9811 9817 9823 9829 9839 9851 9861 9869 9877 9883 9895 9904 9913 9921
9816 9814 9810 9808 9805 9802 9799 9798 9796 9792 9789 9787 9784 9781 9777 9771 9770 9772 9770 9768 9768 9769 9769 9770 9771 9774 9776 9780 9785 9791 9796 9802 9808 9817 9825 9834 9841 9848 9856 9866 9875 9885 9895
9797 9794 9792 9789 9787 9785 9782 9780 9778 9777 9774 9770 9769 9766 9762 9757 9753 9752 9752 9750 9749 9749 9750 9751 9752 9755 9757 9759 9764 9769 9774 9779 9786 9794 9801 9808 9816 9824 9831 9838 9847 9857 9867
9779 9776 9773 9771 9768 9767 9765 9761 9759 9758 9757 9755 9752 9751 9747 9742 9736 9735 9734 9734 9733 9732 9732 9732 9734 9736 9739 9741 9746 9751 9755 9760 9765 9772 9779 9786 9793 9800 9807 9813 9822 9830 9839
9762 9760 9757 9754 9752 9750 9747 9746 9744 9743 9741 9739 9737 9735 9731 9726 9720 9718 9718 9717 9717 9716 9716 9716 9717 9719 9722 9725 9729 9733 9737 9741 9746 9752 9758 9764 9771 9777 9784 9791 9798 9805 9812
9745 9743 9741 9739 9738 9735 9733 9731 9729 9727 9725 9723 9721 9718 9715 9712 9707 9703 9703 9702 9702 9701 9700 9701 9702 9704 9706 9709 9712 9716 9720 9725 9729 9733 9738 9743 9750 9758 9764 9769 9776 9783 9789
9730 9728 9726 9724 9723 9721 9719 9717 9715 9713 9711 9709 9707 9703 9700 9697 9695 9691 9689 9688 9687 9687 9687 9686 9687 9688 9690 9693 9696 9699 9703 9706 9711 9715 9720 9725 9731 9737 9743 9749 9755 9762 9768